Weather History for KFLG - October, 2014

Change the Weather History Date:

Friday, October 31, 2014

  Actual Average Record
Temperature  
Mean Temperature 50 °F 42 °F  
Max Temperature 67 °F 57 °F 70 °F (1973)
Min Temperature 32 °F 27 °F 7 °F (1935)
Degree Days  
Heating Degree Days 15 23  
Month to date heating degree days 419 566  
Since 1 July heating degree days 671 883  
Cooling Degree Days 0 0  
Month to date cooling degree days 0 0  
Year to date cooling degree days 109 117  
Moisture  
Dew Point 32 °F    
Average Humidity 47    
Maximum Humidity 66    
Minimum Humidity 28    
Precipitation  
Precipitation 0.00 in 0.06 in 1.79 in (1987)
Month to date precipitation 0.69 1.66  
Year to date precipitation 16.63 18.23  
Snow  
Snow 0.00 in 0.20 in 9.00 in (1920)
Month to date snowfall 0.0 1.5  
Since 1 July snowfall 0.0 1.5  
Snow Depth 0.00 in    
Sea Level Pressure  
Sea Level Pressure 29.99 in    
Wind  
Wind Speed 8 mph (SSW)    
Max Wind Speed 25 mph    
Max Gust Speed 32 mph    
Visibility 10 miles    
Events      
T = Trace of Precipitation, MM = Missing Value Source: NWS Daily Summary

Daily Weather History Graph

Daily Weather History Graph

Search for Another Location

Airport or City:

Trip Planner

Search our weather history database for the weather conditions in past years. The results will help you decide how hot, cold, wet, or windy it might be!

Date:

Astronomy

Oct. 31, 2014 Rise Set
Actual Time 6:47 AM MST 5:33 PM MST
Civil Twilight 6:20 AM MST 5:59 PM MST
Nautical Twilight 5:50 AM MST 6:29 PM MST
Astronomical Twilight 5:21 AM MST 6:58 PM MST
Moon 1:35 PM MST (10/31) No Moon Set
Length of Visible Light 11h 38m
Length of Day
10h 46m
First Quarter, 58% of the Moon is Illuminated
Oct 31
First Quarter
Nov 6
Full
Nov 14
Last Quarter
Nov 22
New
Nov 29
First Quarter

Hourly Weather History & Observations

Time (MST) Temp. Dew Point Humidity Pressure Visibility Wind Dir Wind Speed Gust Speed Precip Events Conditions
12:57 AM 33.1 °F 21.0 °F 61% 30.10 in 10.0 mi Calm Calm - N/A   Clear
1:57 AM 34.0 °F 21.9 °F 61% 30.09 in 10.0 mi Calm Calm - N/A   Clear
2:57 AM 36.0 °F 23.0 °F 59% 30.06 in 10.0 mi Calm Calm - N/A   Clear
3:57 AM 37.9 °F 25.0 °F 60% 30.05 in 10.0 mi Calm Calm - N/A   Clear
4:57 AM 39.0 °F 26.1 °F 60% 30.06 in 10.0 mi Calm Calm - N/A   Clear
5:57 AM 39.9 °F 28.0 °F 63% 30.08 in 10.0 mi Calm Calm - N/A   Clear
6:57 AM 39.9 °F 28.9 °F 65% 30.10 in 10.0 mi Calm Calm - N/A   Clear
7:57 AM 41.0 °F 30.0 °F 65% 30.12 in 10.0 mi Calm Calm - N/A   Clear
8:57 AM 51.1 °F 32.0 °F 48% 30.09 in 10.0 mi Calm Calm - N/A   Clear
9:57 AM 61.0 °F 34.0 °F 36% 30.06 in 10.0 mi SSW 10.4 mph - N/A   Clear
10:57 AM 64.0 °F 35.1 °F 34% 30.05 in 10.0 mi SSW 12.7 mph - N/A   Clear
11:57 AM 66.0 °F 35.1 °F 32% 30.02 in 10.0 mi SSW 12.7 mph 24.2 mph N/A   Clear
12:57 PM 66.0 °F 36.0 °F 33% 29.99 in 10.0 mi SSW 18.4 mph 24.2 mph N/A   Clear
1:57 PM 66.0 °F 34.0 °F 30% 29.96 in 10.0 mi SSW 21.9 mph 28.8 mph N/A   Clear
2:57 PM 66.0 °F 32.0 °F 28% 29.95 in 10.0 mi SSW 21.9 mph 29.9 mph N/A   Clear
3:57 PM 64.0 °F 33.1 °F 31% 29.94 in 10.0 mi SSW 16.1 mph 24.2 mph N/A   Clear
4:57 PM 62.1 °F 33.1 °F 34% 29.92 in 10.0 mi SSW 18.4 mph 27.6 mph N/A   Clear
5:57 PM 57.9 °F 33.1 °F 39% 29.93 in 10.0 mi SSW 15.0 mph - N/A   Clear
6:57 PM 55.0 °F 34.0 °F 45% 29.95 in 10.0 mi SSW 8.1 mph - N/A   Clear
7:57 PM 50.0 °F 36.0 °F 59% 29.96 in 10.0 mi Calm Calm - N/A   Clear
8:57 PM 48.9 °F 37.0 °F 64% 29.92 in 10.0 mi Calm Calm - N/A   Partly Cloudy
9:57 PM 55.0 °F 41.0 °F 59% 29.85 in 10.0 mi South 8.1 mph 16.1 mph N/A   Mostly Cloudy
10:57 PM 55.0 °F 42.1 °F 62% 29.81 in 10.0 mi South 11.5 mph 20.7 mph N/A   Overcast
11:57 PM 54.0 °F 42.1 °F 64% 29.80 in 10.0 mi South 10.4 mph - N/A   Mostly Cloudy